User: anonymous
Location: Meetinghouse Hill
(42.7686°N, 71.7752°W)
Time: 07:46:03
(UTC-04:00)
Language:

Iridium 34 - Orbit

View from above orbital plane
View from above orbital plane
View from above satellite
View from above satellite

Ground track
Ground track

The orbit data is extracted from the following two-line orbital elements,

1 24969U 97056E   14261.20638567  .00000393  00000-0  13332-3 0  9370
2 24969 086.4007 018.0289 0002266 111.7998 248.3439 14.34221418888778
Epoch (UTC): 18 September 2014 04:57:11
Eccentricity: 0.0002266
inclination: 86.4007°
perigee height: 776 km
apogee height: 779 km
right ascension of ascending node: 18.0289°
argument of perigee: 111.7998°
revolutions per day: 14.34221418
mean anomaly at epoch: 248.3439°
orbit number at epoch: 88877

The dashed part of the orbit path shows where the satellite is in the earth's shadow,  

DLR